GFSGBSN_500_rhum_147.txt.gz
RH
75 74 76 74 72 71 70 71 68 69 67 64 65 57 57 72 69 65 64 62 58 60 65 60 55 43 52 54 44 38 37 47 46 44 41 38 38 41 40 27 15 9 7 5 5 6 6
87 83 76 80 72 74 78 80 75 74 73 71 65 72 72 76 78 70 70 73 71 66 76 67 55 46 58 54 51 49 46 51 54 50 50 47 44 37 35 34 26 16 13 8 5 5 5
58 55 53 49 52 66 68 66 78 76 78 74 64 68 77 73 83 66 78 74 69 66 80 69 56 62 64 60 55 60 58 53 51 58 63 56 53 50 47 46 44 38 23 13 7 6 6
74 76 78 76 71 84 86 76 65 76 81 77 72 68 77 78 82 74 78 76 66 77 82 80 87 73 69 68 57 52 56 53 49 45 55 64 57 58 59 58 58 51 37 14 16 10 10
86 84 77 79 89 91 96 99 94 91 76 61 57 77 80 84 80 65 70 71 66 74 85 76 78 77 70 72 63 62 58 57 59 56 51 56 67 69 66 64 60 59 57 28 21 18 10
79 74 66 64 73 100 83 93 92 95 94 60 52 63 69 93 84 79 68 62 74 73 76 80 81 74 69 74 74 68 61 54 58 58 58 54 56 54 46 44 42 57 57 54 45 31 29
76 72 68 60 54 58 59 68 78 73 72 85 61 61 61 68 82 79 76 73 64 74 80 87 80 89 66 66 70 68 65 66 62 63 62 57 54 52 49 45 41 45 60 64 68 60 51
79 76 77 77 70 61 53 54 57 54 55 64 77 79 61 60 83 86 78 76 82 69 63 90 90 75 83 62 67 59 73 69 64 67 68 66 67 64 63 59 48 38 34 36 42 44 38
85 91 78 81 88 84 78 70 68 67 63 46 72 96 87 53 54 88 95 80 68 76 72 68 82 78 93 83 76 73 68 86 81 67 71 74 75 57 64 60 50 41 35 32 30 32 34
99 94 89 97 96 100 90 84 75 48 52 58 96 78 78 67 66 77 99 92 71 60 75 70 62 71 77 90 80 88 88 93 76 63 68 68 66 64 58 47 45 42 38 37 37 37 40
88 82 88 92 91 100 95 98 92 80 61 49 87 99 77 98 100 96 98 98 94 83 85 70 58 66 74 88 78 93 93 82 68 58 65 66 63 59 51 46 45 45 46 46 47 48 48
73 74 67 58 60 58 68 90 97 98 95 70 36 58 84 99 95 77 97 95 94 95 77 78 58 52 72 86 89 84 88 78 69 72 75 69 59 55 53 52 51 50 53 53 51 51 47
90 85 64 65 63 68 60 37 40 44 62 78 64 86 95 94 89 74 90 98 98 81 79 80 80 85 84 83 89 94 92 87 89 78 60 53 52 54 57 62 59 61 60 55 52 90 87
100 100 100 98 93 93 100 87 89 83 98 93 96 79 70 97 96 91 92 97 89 70 81 81 93 84 94 86 88 96 96 96 99 94 83 88 82 69 65 69 66 58 55 53 50 47 42
80 89 95 99 100 100 100 100 95 95 99 98 100 100 97 92 96 94 100 99 61 72 67 64 79 89 92 89 85 99 100 98 88 93 99 98 98 78 72 68 64 53 50 49 39 35 31
15 15 18 27 35 59 85 98 99 100 100 100 100 100 94 100 100 100 100 80 80 73 75 78 94 100 92 100 100 100 98 95 97 98 98 96 88 74 65 60 58 54 41 30 20 26 26
65 57 49 35 22 16 17 25 50 87 100 100 100 100 92 100 100 100 94 63 89 71 74 87 99 98 99 99 100 98 100 83 90 81 76 75 74 68 68 65 58 52 40 17 20 24 26
63 65 66 69 64 57 38 29 21 23 44 96 100 100 99 100 100 100 82 74 90 79 70 76 93 97 100 91 94 97 100 91 83 78 82 77 77 80 65 64 67 30 11 14 20 24 33
38 42 50 57 72 77 72 66 54 36 21 58 72 100 100 100 99 92 100 94 94 86 82 100 100 100 100 100 100 100 100 85 95 100 89 78 80 76 67 62 37 23 20 26 25 16 20
18 19 19 23 34 51 73 81 76 66 38 20 47 68 98 99 97 98 100 100 99 100 100 100 100 100 100 97 100 100 100 96 96 88 83 87 88 81 68 31 22 26 25 26 19 12 7
13 12 13 14 13 17 34 45 73 77 72 21 27 27 51 93 89 91 100 100 100 95 100 100 100 100 100 100 99 93 100 90 91 83 86 87 82 73 55 27 22 37 45 30 10 6 5
15 14 12 11 10 12 15 52 35 57 89 48 34 25 24 56 100 99 100 100 100 100 100 100 100 100 97 94 98 100 95 92 92 79 86 85 78 69 51 28 35 52 53 13 6 5 5
14 15 15 12 11 24 60 52 100 57 39 99 79 41 26 37 60 100 96 95 100 100 96 100 100 99 97 95 95 90 93 96 87 80 82 82 71 53 50 56 64 50 14 10 7 6 8
25 16 17 14 51 76 90 81 94 100 92 97 97 81 52 56 41 64 100 100 100 100 100 100 100 98 92 92 100 100 100 96 87 86 86 76 64 77 82 64 30 20 12 8 6 9 15
22 21 17 17 50 95 83 100 100 100 92 70 100 100 96 72 84 99 100 100 100 100 100 99 100 99 98 100 100 100 100 92 91 98 93 94 94 62 32 16 14 8 17 14 10 14 16
46 18 18 16 100 100 100 100 100 100 100 100 99 100 99 95 90 100 100 100 100 100 99 99 97 96 100 100 100 95 96 98 100 91 94 88 44 23 16 12 9 37 24 8 14 14 32
100 38 16 16 81 93 100 100 100 100 100 100 90 88 100 100 100 98 100 98 100 100 100 100 99 100 100 98 98 100 100 99 94 88 77 32 16 14 10 8 7 7 8 15 18 40 56
94 62 18 16 16 77 96 100 98 99 100 99 69 100 100 100 100 100 98 100 100 100 100 93 99 96 100 100 100 100 98 95 85 64 41 31 14 10 8 8 8 33 18 22 22 16 24
92 39 15 15 33 92 86 100 100 93 79 84 96 99 100 99 100 96 90 97 100 100 96 100 100 100 100 100 98 99 95 93 79 55 22 16 14 20 46 15 13 15 16 21 21 13 21

GFSGBSN_500_rhum_153.txt.gz
RH
86 85 84 62 65 69 57 47 51 53 55 60 54 58 68 71 69 69 68 70 68 62 64 58 52 50 50 50 52 57 50 45 37 41 47 46 46 43 40 41 42 41 38 26 26 16 10
95 92 94 93 83 83 91 82 67 80 86 80 71 73 78 74 76 73 74 75 66 61 66 59 55 53 40 44 39 61 53 52 42 44 47 46 42 43 44 43 40 39 38 36 36 36 35
92 97 99 99 90 87 93 100 94 90 90 86 80 72 61 72 71 81 78 82 76 69 72 70 56 56 50 48 54 56 58 54 49 47 46 45 43 44 44 43 47 46 45 48 50 50 46
98 98 98 96 88 85 93 94 86 80 71 62 56 52 78 69 64 70 79 84 84 87 72 72 64 52 60 57 56 53 64 60 54 54 56 50 42 42 43 45 44 43 43 42 47 40 37
92 96 96 99 98 97 97 95 89 80 70 67 68 90 92 95 83 85 76 80 71 76 69 66 66 61 57 60 57 65 64 63 62 60 58 55 47 46 45 47 51 50 39 44 43 41 40
98 93 97 97 94 94 98 95 93 94 78 78 75 78 78 90 89 87 79 89 77 77 79 68 61 63 60 57 62 65 61 59 55 55 58 59 54 51 48 49 42 39 55 52 57 51 50
95 97 96 96 91 79 97 95 99 95 79 86 84 82 82 75 75 84 84 85 74 55 60 67 58 56 58 61 55 60 69 69 61 60 61 58 48 54 57 57 52 52 49 58 65 60 56
96 96 97 98 96 82 95 97 96 99 87 89 90 87 81 71 66 69 70 59 57 52 43 55 61 54 69 67 49 64 66 67 68 67 66 66 53 67 61 59 68 64 51 54 62 66 66
100 98 97 98 97 95 96 99 98 98 96 92 99 84 76 69 65 63 59 58 53 50 35 34 59 47 61 69 68 74 64 56 63 66 72 69 65 78 67 65 71 78 59 49 50 60 62
97 97 98 97 95 97 97 96 97 98 97 96 95 93 83 78 78 77 76 70 70 62 46 31 40 46 61 64 54 76 85 81 62 70 74 64 76 82 89 69 70 79 65 48 47 53 52
100 100 97 99 96 97 98 95 97 97 97 97 96 98 97 90 89 99 91 85 80 73 62 60 39 49 57 58 58 67 76 83 82 86 88 73 78 79 77 85 93 77 60 53 59 64 61
95 97 98 99 99 98 98 96 95 97 99 96 98 97 98 96 98 99 93 94 89 93 52 69 59 53 60 59 64 66 80 77 63 61 63 64 76 74 84 89 84 77 77 68 62 67 57
95 92 91 84 92 97 97 98 97 99 98 98 98 96 99 98 100 95 97 96 96 67 72 77 79 68 65 71 66 58 59 66 61 57 56 61 51 52 53 63 59 64 77 68 66 64 59
84 93 92 75 66 64 74 94 91 93 96 96 96 95 96 94 100 98 100 96 75 54 57 53 45 48 49 45 43 41 38 51 42 45 46 47 42 64 61 59 73 54 80 76 77 74 72
34 37 57 62 76 77 76 100 94 88 89 90 90 94 96 99 100 99 100 92 53 59 69 79 72 50 43 42 41 42 37 36 57 80 81 83 89 85 83 57 56 99 100 96 92 85 78
44 34 24 21 48 77 88 94 99 100 99 100 100 97 97 100 100 100 100 79 54 56 65 100 80 64 54 50 57 52 53 50 68 98 86 84 88 85 91 75 72 87 100 95 93 87 92
65 62 56 37 19 13 14 34 76 95 99 99 100 97 100 100 100 100 93 70 73 67 83 90 88 86 75 64 87 68 55 73 88 96 86 76 89 100 99 77 90 100 98 99 94 90 88
72 70 74 64 62 34 11 9 8 10 17 23 50 78 80 93 100 99 84 80 86 84 99 100 96 96 99 99 97 95 84 98 85 100 97 98 97 85 100 99 100 99 100 100 100 94 88
94 89 87 84 79 70 57 46 33 26 23 25 17 14 19 23 31 43 57 73 88 83 80 95 96 94 100 100 100 93 87 100 92 100 88 100 97 93 84 100 99 94 89 89 87 86 70
100 99 100 100 100 100 100 97 89 85 83 83 77 60 39 33 19 15 14 19 42 77 92 100 86 100 100 100 97 97 100 95 100 97 98 100 100 98 90 94 92 96 89 81 99 100 99
100 100 99 95 97 100 97 97 94 100 100 100 90 96 81 78 61 38 21 20 16 20 54 100 100 100 100 100 100 100 100 100 97 95 93 100 100 100 97 100 97 94 98 99 100 100 97
68 84 88 84 83 83 85 82 83 82 64 96 100 95 95 72 87 85 54 30 20 24 54 87 100 98 100 100 100 100 100 100 96 100 96 100 100 100 91 99 100 94 92 99 93 98 90
18 16 16 19 25 32 43 50 51 53 42 63 96 100 100 94 88 88 80 71 40 31 43 83 100 100 100 100 100 100 100 96 95 80 91 95 97 98 93 100 98 80 79 91 100 96 77
30 26 24 20 17 16 17 21 26 29 29 32 82 87 100 100 98 90 84 88 85 53 50 81 86 94 99 100 100 100 96 90 100 96 93 95 100 100 92 100 84 77 84 88 95 92 68
21 28 31 33 32 26 17 14 16 18 20 16 86 96 100 99 95 100 78 83 96 100 82 39 88 97 96 100 100 100 91 97 87 92 94 98 100 100 96 97 83 77 82 94 79 59 59
31 26 18 13 19 30 28 19 14 15 16 15 33 100 90 100 98 100 90 73 100 100 96 83 98 100 100 100 98 100 96 92 97 95 100 100 99 95 87 91 71 75 91 95 67 54 57
52 45 37 29 22 22 22 23 15 14 16 16 23 69 97 100 90 100 77 66 96 100 100 100 99 95 97 100 100 93 82 97 100 100 100 100 100 90 98 92 64 78 100 90 59 61 64
66 59 52 67 86 68 28 31 18 14 17 16 20 88 100 95 99 89 72 65 77 89 100 100 96 84 100 100 99 100 98 100 99 99 99 100 100 94 96 87 65 79 81 65 45 35 30
73 55 43 74 88 96 80 30 21 16 18 17 23 98 100 100 100 95 85 79 93 100 100 100 100 100 100 99 96 100 99 100 100 82 100 98 87 100 100 98 100 100 87 75 86 76 28

GFSGBSN_500_rhum_156.txt.gz
RH
82 87 90 85 84 79 81 75 49 54 67 59 40 44 47 54 54 58 59 65 68 68 63 53 43 50 53 54 41 40 36 55 58 50 36 45 39 42 43 41 38 39 37 30 37 25 15
70 74 76 77 86 86 85 88 75 70 74 80 78 59 59 74 79 75 72 73 71 69 60 54 42 54 55 53 48 42 36 46 60 54 47 47 42 42 42 44 45 42 40 36 34 31 33
84 79 74 86 91 91 92 88 92 87 87 87 85 85 82 83 81 73 59 58 63 64 62 55 56 51 67 54 50 46 49 48 55 59 56 50 45 43 45 42 44 43 44 45 49 50 46
81 90 79 87 95 96 93 93 84 89 80 75 81 80 75 69 58 51 60 55 51 61 50 43 55 59 65 62 54 52 56 50 54 55 57 54 51 45 42 41 44 47 41 39 48 42 47
99 93 95 86 87 99 92 81 84 81 69 82 82 77 68 56 63 64 88 76 61 58 50 50 59 59 60 60 63 56 54 58 53 62 61 56 54 54 48 41 43 43 39 40 46 45 42
99 96 95 97 95 98 91 85 83 86 86 86 68 70 71 71 67 68 76 81 76 73 59 54 55 66 59 59 61 62 60 62 64 65 67 62 54 54 54 50 51 48 43 54 50 41 36
84 98 98 97 94 96 99 97 96 98 98 93 83 71 75 83 67 69 70 78 74 69 68 58 51 58 58 56 58 58 59 61 56 61 62 59 54 65 63 54 48 45 49 58 69 64 48
95 84 97 97 98 97 98 90 96 96 97 95 96 78 78 78 77 63 72 82 74 58 53 58 55 48 53 52 37 60 58 59 55 60 64 63 53 70 68 63 59 57 55 54 57 82 65
96 99 91 97 96 98 98 98 96 98 97 98 96 88 82 88 85 70 68 84 78 70 49 38 56 44 51 51 47 74 53 56 59 58 67 55 59 62 62 63 65 61 62 66 65 73 82
97 98 96 98 98 96 97 98 96 97 93 96 96 98 98 96 95 89 77 74 83 70 54 40 50 52 52 55 50 58 66 61 58 70 72 44 77 78 82 73 76 67 76 78 76 79 76
98 98 98 98 95 98 97 98 98 98 95 89 91 96 97 95 94 96 98 90 84 83 67 57 46 54 59 59 53 57 64 58 60 67 78 65 66 62 56 57 68 67 68 70 92 90 74
97 97 96 98 98 98 99 95 98 97 99 97 95 94 92 98 100 96 97 91 83 81 57 68 61 69 67 67 60 59 65 64 58 61 61 62 58 64 69 58 52 50 50 46 62 60 51
97 95 98 95 96 97 98 99 94 96 98 98 98 98 97 97 100 97 97 96 98 69 55 62 74 70 72 69 65 60 54 60 62 53 50 47 42 40 40 35 37 45 57 84 72 54 46
89 96 96 91 92 92 98 97 96 96 96 90 95 86 84 92 97 95 97 96 89 57 62 78 77 68 63 59 54 57 57 50 43 40 38 41 43 39 44 43 49 44 74 91 72 68 70
44 68 75 82 57 62 68 67 65 82 92 87 83 92 92 98 96 97 99 97 60 62 66 69 68 64 57 51 50 53 50 47 53 56 50 49 42 41 44 48 61 70 74 80 89 80 78
42 38 38 33 30 28 32 32 37 44 54 51 55 56 61 87 94 99 98 77 58 56 60 78 74 73 57 50 60 61 60 50 54 71 75 65 66 63 68 73 81 94 99 100 89 89 87
70 66 67 66 59 53 50 41 32 24 33 64 71 76 95 100 100 100 84 66 65 75 96 98 100 94 90 87 86 83 62 61 74 67 80 65 70 84 72 70 81 93 97 100 99 96 98
96 91 85 79 76 74 67 61 53 48 31 20 14 19 53 96 100 99 86 80 92 78 99 94 93 96 94 100 100 100 78 78 92 97 100 90 83 75 100 89 92 93 98 100 100 97 100
100 96 99 100 92 90 84 76 70 62 57 46 38 23 13 15 22 45 58 86 100 97 100 98 95 100 100 96 100 95 78 85 100 100 92 100 98 96 87 100 100 95 100 100 100 92 84
100 100 100 100 100 100 97 89 77 72 68 48 46 39 21 21 14 13 14 14 22 40 74 100 100 100 100 91 100 81 92 98 100 100 100 98 99 92 91 100 100 100 100 100 100 99 97
100 100 100 100 100 100 100 100 100 99 84 83 88 100 69 63 52 66 55 23 15 14 16 32 72 85 100 100 99 98 94 100 100 96 100 100 100 100 100 100 100 100 99 100 100 100 99
100 100 100 100 100 100 100 100 100 100 100 100 100 100 99 99 87 78 88 65 36 29 22 21 44 75 99 100 93 99 100 100 100 100 100 100 98 100 100 100 100 100 98 100 100 100 97
100 100 100 100 100 100 100 100 100 100 100 99 100 100 100 100 98 99 68 71 88 92 75 44 27 37 71 93 100 98 100 100 100 99 100 100 100 100 88 100 100 90 74 100 100 100 99
24 28 36 51 63 71 86 96 100 78 91 100 98 100 100 95 100 83 96 96 85 86 94 95 85 44 51 81 100 100 98 100 100 100 87 90 98 100 95 99 91 71 98 100 100 100 100
44 38 38 34 28 20 17 19 33 61 64 86 98 96 100 100 97 100 95 97 100 99 93 78 89 85 87 82 98 100 100 100 100 88 97 100 100 98 98 98 82 68 88 100 94 86 93
32 20 19 20 23 31 33 22 19 19 18 23 36 62 82 97 93 100 100 100 96 100 100 71 90 99 89 49 100 99 100 100 93 89 94 82 86 99 97 76 62 61 80 100 87 64 78
51 56 61 55 44 31 17 25 34 25 21 19 17 21 28 72 96 100 92 100 82 88 81 93 99 97 100 88 86 100 95 99 100 77 92 93 88 81 90 87 62 68 100 94 70 64 77
72 79 89 92 64 42 37 25 21 38 34 24 17 20 19 21 86 99 88 94 91 80 73 70 100 100 100 100 100 97 100 96 100 100 98 100 100 94 100 88 56 82 78 78 78 78 70
76 98 97 100 64 71 62 64 74 58 39 34 19 20 20 23 63 100 90 88 82 88 90 94 98 100 100 98 98 100 100 100 100 100 100 94 84 86 95 70 84 96 89 82 80 67 78

GFSGBSN_500_rhum_162.txt.gz
RH
79 77 69 65 65 65 66 64 69 68 63 63 62 60 66 60 60 69 58 55 56 59 61 57 62 61 62 59 58 43 37 38 37 29 30 33 45 55 40 34 41 39 36 35 38 38 35
72 68 65 67 66 63 65 63 63 60 56 59 61 61 63 55 61 65 67 59 61 64 58 54 62 54 58 51 54 45 35 38 37 33 34 39 47 60 45 40 41 39 35 35 37 40 39
69 68 70 69 66 65 60 58 59 59 55 51 52 52 53 49 60 60 67 57 56 50 56 58 54 48 48 44 45 43 35 38 43 39 39 43 49 56 52 45 45 44 44 39 41 40 39
77 70 70 72 68 68 63 60 58 57 57 55 54 54 51 50 63 68 58 53 60 52 52 52 51 50 60 50 47 40 33 32 40 41 42 49 54 56 55 51 48 50 49 48 43 41 40
86 80 82 78 69 74 72 67 65 60 61 56 62 63 60 56 58 58 60 57 40 41 63 56 55 57 62 58 57 56 51 41 40 39 40 42 55 61 60 55 55 55 57 57 54 50 45
93 87 86 80 72 72 74 72 72 70 66 67 63 64 63 52 54 55 59 51 43 40 62 62 61 64 64 65 59 64 64 59 50 44 43 43 48 56 62 63 59 56 53 56 60 57 52
97 95 95 94 88 90 81 73 70 79 73 70 74 77 72 60 59 59 69 64 53 37 46 55 54 62 76 75 57 70 59 56 51 47 45 46 44 56 64 62 60 60 61 60 67 65 55
100 97 98 98 100 98 95 87 84 83 75 79 89 87 87 89 76 82 86 85 61 43 38 59 59 50 66 70 57 84 68 59 54 49 46 42 43 60 59 62 61 60 60 61 58 62 55
96 94 97 97 98 98 100 99 96 99 96 90 95 86 93 93 78 81 93 90 82 71 39 31 62 61 69 67 52 86 66 65 60 56 57 52 44 54 50 57 58 59 53 59 58 65 58
95 98 98 96 99 91 100 100 99 97 98 94 98 95 95 97 99 96 98 98 96 92 60 37 46 48 53 54 60 58 74 65 62 69 69 54 54 59 58 52 62 52 64 58 57 59 54
99 97 97 98 98 98 98 98 100 99 100 99 98 99 99 96 97 100 98 98 97 94 87 58 41 48 57 60 66 65 68 68 65 71 74 66 61 65 64 64 64 58 56 61 60 58 55
99 98 98 93 98 96 97 98 97 98 98 98 98 97 98 97 97 96 96 97 98 97 72 66 60 64 66 66 69 74 71 71 74 79 80 69 76 76 72 74 73 63 60 57 53 50 47
98 99 98 98 99 98 90 97 96 98 98 96 95 96 97 98 98 97 98 98 99 87 66 76 78 73 68 71 74 82 81 75 83 83 82 80 74 73 70 64 61 58 57 59 60 57 50
90 95 98 99 98 97 98 96 99 97 97 97 91 87 96 99 98 95 96 98 93 66 71 75 74 78 80 79 72 76 78 76 80 80 75 73 64 70 63 60 58 57 60 58 61 58 52
98 96 98 97 97 97 97 97 96 99 99 98 97 95 97 100 96 97 95 97 74 70 76 71 80 74 69 68 73 66 61 59 77 78 75 72 62 61 60 57 56 50 54 70 79 63 76
94 98 94 90 92 96 96 88 84 97 97 96 96 94 92 94 93 90 95 66 69 63 62 58 55 66 58 56 65 71 64 56 63 81 85 76 74 67 62 60 56 56 62 64 69 72 71
60 68 54 51 58 78 89 87 75 92 100 100 98 96 85 94 94 83 81 71 70 46 69 63 49 50 63 69 61 71 65 63 56 74 96 92 87 56 72 71 73 73 68 68 76 82 82
40 38 40 38 32 31 36 49 57 80 98 100 100 98 88 83 79 74 62 59 46 37 43 85 59 44 46 77 99 99 65 88 96 96 85 100 100 73 74 84 91 80 77 91 98 83 93
33 28 35 40 41 43 58 71 67 84 91 90 82 85 88 85 67 59 47 44 42 37 34 59 61 67 73 81 94 88 76 73 100 100 100 100 100 98 80 81 100 96 90 93 98 100 96
93 85 70 62 76 69 79 93 98 100 100 100 87 76 76 71 65 59 53 50 48 43 38 36 36 37 65 100 100 94 87 84 98 100 100 100 100 100 85 80 88 96 98 100 100 100 95
85 99 100 100 100 100 100 100 100 100 100 100 100 93 95 83 78 91 84 71 58 52 39 33 30 28 47 73 97 100 90 86 100 100 100 100 100 100 100 90 100 95 88 93 100 100 100
100 100 100 100 100 100 100 100 100 100 100 100 100 100 100 100 100 100 100 100 83 73 66 52 44 34 26 25 25 26 87 99 89 100 100 100 97 97 96 100 100 100 95 91 88 89 100
100 100 100 100 100 100 100 100 100 100 100 100 100 100 100 100 100 100 100 93 91 100 100 94 82 78 58 50 51 29 26 28 65 97 100 100 100 100 93 100 100 99 79 100 100 100 100
100 100 100 100 100 100 100 100 100 100 100 100 100 100 100 97 100 100 94 100 100 100 98 98 100 95 91 90 83 66 47 36 38 48 95 100 100 100 97 100 99 74 78 99 100 100 100
100 100 100 100 100 100 100 100 100 100 100 100 100 100 100 92 90 91 94 98 98 100 100 93 96 100 100 100 94 99 96 79 50 45 75 100 100 100 100 100 100 91 94 100 100 89 97
79 100 100 100 100 100 100 100 100 100 100 100 100 100 100 95 82 100 100 98 90 100 100 91 100 100 100 100 100 97 100 100 100 84 63 56 100 100 100 100 94 71 98 100 97 78 100
48 69 100 100 100 100 100 100 100 100 100 100 96 100 100 90 77 100 94 97 100 100 98 100 100 100 100 100 100 98 97 100 92 81 80 69 88 98 100 91 88 100 88 79 86 88 90
81 54 71 97 100 100 100 100 100 94 69 66 73 83 91 85 78 88 94 94 100 99 100 100 100 100 100 100 98 88 86 98 96 89 94 95 100 98 100 100 100 100 96 75 84 75 61
100 77 60 88 100 100 100 100 100 97 96 65 52 56 55 51 60 75 77 90 100 100 100 95 100 100 100 100 96 100 100 100 95 74 92 80 94 100 100 100 100 100 96 73 62 69 65

GFSGBSN_500_rhum_168.txt.gz
RH
86 83 78 73 68 64 62 67 74 58 60 68 70 67 59 54 50 52 48 47 42 38 40 46 51 58 50 56 48 37 37 38 41 40 42 36 36 33 30 30 30 39 39 38 42 37 36
96 84 75 72 63 62 63 66 69 69 70 67 64 55 50 49 50 52 48 44 38 36 38 41 46 49 46 55 46 38 37 37 39 38 44 38 36 36 36 35 31 38 38 38 46 41 39
91 85 82 79 71 65 70 72 68 64 66 66 56 49 46 45 48 50 48 45 38 33 34 37 41 39 47 49 45 37 40 39 40 38 36 36 43 36 36 36 34 38 40 37 43 42 40
96 91 94 88 83 78 75 70 73 70 66 67 59 51 46 45 50 50 50 42 43 37 36 38 36 36 39 58 45 44 46 43 46 46 45 41 43 44 38 38 35 36 42 43 44 41 40
92 90 88 87 80 83 81 74 76 75 72 72 68 60 53 54 56 54 52 51 47 44 40 36 34 33 37 50 52 45 49 50 48 54 54 52 50 48 40 40 43 45 47 47 44 46 43
86 88 86 78 81 78 77 77 76 77 80 79 76 68 64 62 67 64 64 56 54 51 45 45 41 38 43 50 52 45 53 52 52 54 59 58 55 54 47 48 42 41 43 49 52 45 51
86 80 72 74 75 75 75 74 79 79 83 79 77 70 71 69 80 76 68 70 61 48 48 47 46 36 50 53 42 64 56 60 54 65 70 63 56 54 51 46 43 37 37 44 62 50 50
94 90 83 86 86 79 78 75 77 80 77 75 80 76 70 77 76 73 72 74 65 53 42 48 49 38 66 53 46 75 64 62 61 60 71 68 55 68 63 51 46 42 38 40 55 52 42
92 96 88 90 77 72 68 66 81 77 77 72 73 73 65 62 60 64 63 62 61 62 47 37 56 54 50 50 48 91 72 63 69 72 76 68 64 74 69 64 61 58 56 52 47 44 42
99 97 87 84 79 81 88 86 82 86 73 75 78 69 66 69 74 72 66 62 59 63 54 41 47 54 62 66 76 75 89 78 70 67 78 72 67 66 69 65 70 61 66 60 61 57 55
97 99 99 99 98 99 99 99 96 95 94 94 82 88 86 82 83 79 75 76 82 83 81 50 43 46 60 59 63 69 76 90 88 84 85 77 67 69 66 68 83 71 66 65 66 66 63
99 98 98 97 98 98 98 99 100 97 99 95 95 97 97 95 86 75 75 77 91 100 72 67 52 61 64 71 70 72 80 78 82 76 72 77 71 57 58 64 67 71 73 70 75 75 60
100 98 97 98 98 98 94 96 96 98 98 99 94 87 95 99 99 90 99 100 100 88 63 62 59 66 70 75 83 83 77 77 76 75 75 73 67 65 61 65 69 71 75 81 80 74 61
96 97 95 99 94 99 99 97 96 99 98 98 98 98 99 87 93 100 99 100 95 74 86 83 79 80 84 92 89 88 87 91 86 81 82 80 70 72 68 80 82 72 74 79 93 85 100
98 98 98 90 98 98 98 98 96 97 100 98 99 98 96 100 98 99 100 98 89 95 94 100 99 97 95 99 98 99 97 96 97 99 93 81 80 84 79 76 82 83 79 91 97 80 96
94 95 98 99 99 99 98 97 99 99 100 100 100 99 92 96 97 98 98 95 91 100 98 100 98 97 92 90 87 82 92 97 92 93 94 86 76 88 85 74 80 84 94 94 97 97 93
79 68 60 67 100 99 98 97 100 100 99 100 100 100 90 84 83 84 71 81 94 97 99 98 99 99 98 94 96 90 98 95 94 84 79 88 92 77 86 69 82 88 82 95 100 94 97
79 87 79 75 78 76 69 77 92 96 100 96 100 98 99 99 100 100 65 60 67 79 100 99 98 99 98 100 100 98 95 99 99 96 84 88 79 63 57 67 85 100 92 100 100 85 100
55 55 62 61 64 69 71 69 77 76 76 97 100 96 99 100 99 99 98 80 84 77 90 97 100 99 100 100 100 100 99 100 99 100 97 89 96 68 51 64 72 90 89 100 100 96 81
87 68 60 55 58 62 61 60 68 83 88 100 100 100 92 100 100 100 100 100 99 88 94 100 100 100 99 100 100 92 100 100 100 100 100 100 100 99 98 80 100 99 100 100 100 100 76
82 85 97 100 99 99 100 97 96 94 99 100 100 100 94 99 94 98 100 100 100 100 100 100 100 100 100 100 100 94 99 100 100 100 98 100 96 100 100 98 95 100 100 96 100 100 100
92 90 76 66 75 94 99 100 100 100 100 100 100 100 100 100 100 100 100 100 100 98 100 97 97 94 94 96 88 77 63 65 64 76 100 100 95 98 94 98 100 100 92 81 100 100 100
100 100 100 97 73 65 78 80 94 97 97 100 100 100 100 100 97 100 98 100 100 100 100 100 100 100 100 96 94 88 86 67 58 51 45 42 41 41 52 61 57 89 61 87 96 99 100
52 95 100 100 100 100 99 100 100 100 97 97 99 100 100 97 100 100 100 100 100 100 100 100 100 100 100 100 97 99 100 70 68 69 78 75 73 85 90 81 85 52 42 39 53 75 93
28 62 100 100 100 100 100 100 100 100 100 100 100 100 100 92 100 100 98 100 100 100 100 100 100 100 100 98 100 100 91 84 58 61 60 62 68 78 96 92 75 57 44 51 75 43 54
45 28 40 100 100 100 100 100 100 100 99 100 100 100 100 99 100 100 100 100 96 95 95 94 95 100 100 95 100 100 83 86 77 64 64 70 69 84 80 83 80 63 80 79 90 62 97
100 65 31 48 100 100 100 99 93 97 100 99 100 100 100 96 96 100 100 100 100 100 100 98 100 95 100 100 100 100 91 91 71 73 82 98 100 96 96 100 100 100 64 78 78 75 88
100 100 94 46 58 100 100 98 100 99 73 79 87 96 100 97 86 94 93 98 96 97 100 100 100 89 98 100 100 100 89 81 81 92 81 86 94 83 88 98 88 74 83 87 76 88 100
100 100 100 100 88 83 93 92 100 86 100 100 90 93 84 84 84 87 78 81 91 99 99 96 99 100 100 100 100 87 88 100 100 87 100 98 95 92 96 100 99 93 82 76 89 100 100